User: anonymous   Login
Location: Cz?stochówka
(50.8142°N, 19.0915°E)
Time: 10:04:27
(UTC+00:00)
Language:

Meteor 1-22 Rocket - Orbit

View from above orbital plane
View from above orbital plane
View from above satellite
View from above satellite

Ground track
Ground track

The orbit is defined by the following mean orbital elements,

1 08294U          26075.93902278 +.00000000 +00000-0 +18765-3 0 00006
2 08294  81.2129 147.9163 0104322  25.7770 334.8546 14.09101736    04
Epoch (UTC): 16 March 2026 22:32:11
Eccentricity: 0.0104322
inclination: 81.2129°
perigee height: 787 km
apogee height: 938 km
right ascension of ascending node: 147.9163°
argument of perigee: 25.7770°
revolutions per day: 14.09101736
mean anomaly at epoch: 334.8546°

The dashed part of the orbit path shows where the satellite is in the earth's shadow,  

DLR